LOT5N KJFK-EPWA

Flight info

Callsign LOT5N
Flight time N/A
Altitude 37000
Route GREKI DCT JUDDS DCT MARTN DCT CBIRD DCT TAFFY N829B HOIST/M084F390 DCT 57N050W 58N040W 58N030W 57N020W DCT PIKIL DCT SOVED/N0485F410 DCT LUTOV DCT REMSI DCT BELOX L603 LAMSO DCT AMSAN DCT ROBEG DCT HLZ DCT SUBIX L980 BAREP DCT DIPKI P150 BIMPA
Aircraft B772/H-SDE2E3FGHIJ5LORVWXY/LB1D1

Departure

Time N/A
Airport John F. Kennedy International Airport (KJFK)

Arrival

Time 2026-05-01 15:24
Airport Warsaw Chopin Airport (EPWA)
Time Latitude Longitude Altitude Speed Heading
2026-05-01 12:39 54.93174 -8.33111 41077 ft 475 kts 111°
2026-05-01 12:40 54.92326 -8.28703 41075 ft 475 kts 111°
2026-05-01 12:40 54.90322 -8.18340 41071 ft 475 kts 111°
2026-05-01 12:41 54.88336 -8.07385 41068 ft 476 kts 109°
2026-05-01 12:41 54.86581 -7.96415 41063 ft 476 kts 108°
2026-05-01 12:42 54.84807 -7.85336 41057 ft 477 kts 109°
2026-05-01 12:42 54.82987 -7.74283 41056 ft 477 kts 109°
2026-05-01 12:43 54.81150 -7.63322 41060 ft 476 kts 109°
2026-05-01 12:43 54.79286 -7.52297 41075 ft 476 kts 109°
2026-05-01 12:44 54.77414 -7.41295 41069 ft 476 kts 109°
2026-05-01 12:45 54.74810 -7.26081 41069 ft 475 kts 109°
2026-05-01 12:45 54.72993 -7.15546 41075 ft 475 kts 110°
2026-05-01 12:46 54.71097 -7.04613 41076 ft 474 kts 110°
2026-05-01 12:46 54.69216 -6.93831 41070 ft 474 kts 110°
2026-05-01 12:47 54.67301 -6.82928 41078 ft 474 kts 110°
2026-05-01 12:47 54.65390 -6.72108 41083 ft 474 kts 110°
2026-05-01 12:48 54.63455 -6.61223 41089 ft 474 kts 110°
2026-05-01 12:48 54.61510 -6.50342 41097 ft 475 kts 110°
2026-05-01 12:49 54.59555 -6.39470 41088 ft 475 kts 110°
2026-05-01 12:49 54.57601 -6.28668 41099 ft 475 kts 110°
2026-05-01 12:50 54.56840 -6.24476 41100 ft 475 kts 110°
2026-05-01 12:50 54.55013 -6.14458 41107 ft 476 kts 110°
2026-05-01 12:51 54.53020 -6.03585 41106 ft 476 kts 110°
2026-05-01 12:52 54.50043 -5.87468 41108 ft 476 kts 111°
2026-05-01 12:52 54.47009 -5.71186 41111 ft 477 kts 111°
2026-05-01 12:53 54.43954 -5.54929 41122 ft 476 kts 111°
2026-05-01 12:54 54.41907 -5.44117 41126 ft 476 kts 111°
2026-05-01 12:54 54.38833 -5.27992 41123 ft 476 kts 111°
2026-05-01 12:55 54.37143 -5.19186 41127 ft 476 kts 111°
2026-05-01 12:56 54.35067 -5.08420 41132 ft 476 kts 111°
2026-05-01 12:56 54.33004 -4.97783 41132 ft 476 kts 111°
2026-05-01 12:57 54.30921 -4.87105 41146 ft 476 kts 111°
2026-05-01 12:57 54.27751 -4.70964 41126 ft 477 kts 111°
2026-05-01 12:58 54.25627 -4.60223 41135 ft 476 kts 111°
2026-05-01 12:59 54.22426 -4.44146 41137 ft 476 kts 112°
2026-05-01 12:59 54.19216 -4.28157 41140 ft 476 kts 112°
2026-05-01 13:00 54.17366 -4.19002 41135 ft 476 kts 112°
2026-05-01 13:01 54.14111 -4.02995 41160 ft 476 kts 112°
2026-05-01 13:02 54.10864 -3.87153 41155 ft 477 kts 112°
2026-05-01 13:07 53.87722 -2.77729 41141 ft 478 kts 113°
2026-05-01 13:08 53.85419 -2.67157 41135 ft 478 kts 113°
2026-05-01 13:08 53.83108 -2.56603 41129 ft 478 kts 113°
2026-05-01 13:09 53.80803 -2.46126 41132 ft 478 kts 113°
2026-05-01 13:09 53.78471 -2.35577 41132 ft 479 kts 113°
2026-05-01 13:10 53.76465 -2.26551 41125 ft 479 kts 113°
2026-05-01 13:10 53.75649 -2.22890 41129 ft 478 kts 113°
2026-05-01 13:11 53.73313 -2.12444 41134 ft 479 kts 113°
2026-05-01 13:11 53.70951 -2.01932 41124 ft 479 kts 113°
2026-05-01 13:12 53.68611 -1.91569 41132 ft 478 kts 113°
2026-05-01 13:12 53.66233 -1.81093 41139 ft 478 kts 113°
2026-05-01 13:13 53.63849 -1.70643 41147 ft 478 kts 113°
2026-05-01 13:13 53.61471 -1.60268 41138 ft 478 kts 114°
2026-05-01 13:14 53.59070 -1.49845 41134 ft 477 kts 114°
2026-05-01 13:14 53.56664 -1.39453 41138 ft 477 kts 114°
2026-05-01 13:15 53.54615 -1.30639 41133 ft 477 kts 114°
2026-05-01 13:15 53.53835 -1.27297 41131 ft 477 kts 114°
2026-05-01 13:16 53.51423 -1.16989 41137 ft 477 kts 114°
2026-05-01 13:16 53.48988 -1.06629 41135 ft 477 kts 114°
2026-05-01 13:17 53.44125 -0.86091 41141 ft 477 kts 114°
2026-05-01 13:18 53.40430 -0.70612 41148 ft 477 kts 114°
2026-05-01 13:18 53.37973 -0.60382 41152 ft 477 kts 114°
2026-05-01 13:19 53.35487 -0.50083 41152 ft 477 kts 114°
2026-05-01 13:20 53.32139 -0.36285 41156 ft 477 kts 115°
2026-05-01 13:20 53.31352 -0.33055 41155 ft 477 kts 115°
2026-05-01 13:21 53.27584 -0.17649 41155 ft 477 kts 115°
2026-05-01 13:21 53.25078 -0.07466 41149 ft 477 kts 115°
2026-05-01 13:22 53.22577 0.02653 41142 ft 477 kts 115°
2026-05-01 13:22 53.20038 0.12874 41153 ft 477 kts 115°
2026-05-01 13:23 53.17488 0.23098 41158 ft 478 kts 115°
2026-05-01 13:23 53.14944 0.33246 41155 ft 478 kts 115°
2026-05-01 13:24 53.12376 0.43448 41157 ft 478 kts 115°
2026-05-01 13:25 53.08934 0.57045 41154 ft 477 kts 115°
2026-05-01 13:25 53.08089 0.60369 41155 ft 477 kts 115°
2026-05-01 13:26 53.05518 0.70461 41164 ft 477 kts 115°
2026-05-01 13:26 53.02921 0.80606 41158 ft 477 kts 115°
2026-05-01 13:27 53.00316 0.90747 41161 ft 477 kts 115°
2026-05-01 13:27 52.97091 1.06217 41163 ft 480 kts 103°
2026-05-01 13:28 52.95255 1.22537 41182 ft 480 kts 102°
2026-05-01 13:29 52.92758 1.44172 41195 ft 480 kts 103°
2026-05-01 13:31 52.89959 1.67525 41200 ft 479 kts 103°
2026-05-01 13:32 52.86675 1.94470 41203 ft 479 kts 103°
2026-05-01 13:33 52.83337 2.21313 41213 ft 478 kts 103°
2026-05-01 13:34 52.80628 2.42744 41221 ft 478 kts 103°
2026-05-01 13:35 52.79501 2.51557 41225 ft 478 kts 104°
2026-05-01 13:36 52.77790 2.64765 41222 ft 477 kts 104°
2026-05-01 13:36 52.75701 2.80759 41223 ft 477 kts 104°
2026-05-01 13:37 52.74321 2.91479 41226 ft 477 kts 103°
2026-05-01 13:37 52.72959 3.02066 41224 ft 477 kts 103°
2026-05-01 13:38 52.70975 3.18082 41229 ft 477 kts 103°
2026-05-01 13:39 52.69649 3.28807 41217 ft 477 kts 103°
2026-05-01 13:39 52.68306 3.39521 41229 ft 477 kts 103°
2026-05-01 13:40 52.67205 3.48219 41240 ft 477 kts 103°
2026-05-01 13:40 52.66708 3.52127 41235 ft 477 kts 103°
2026-05-01 13:41 52.65338 3.62839 41244 ft 478 kts 103°
2026-05-01 13:41 52.63960 3.73531 41239 ft 478 kts 103°
2026-05-01 13:42 52.62570 3.84238 41239 ft 478 kts 103°
2026-05-01 13:42 52.61171 3.94934 41239 ft 478 kts 103°
2026-05-01 13:43 52.59786 4.05447 41236 ft 479 kts 103°
2026-05-01 13:43 52.58366 4.16141 41242 ft 479 kts 103°
2026-05-01 13:44 52.56936 4.26836 41239 ft 479 kts 103°
2026-05-01 13:44 52.55496 4.37526 41241 ft 479 kts 103°
2026-05-01 13:45 52.54328 4.46134 41244 ft 479 kts 103°
2026-05-01 13:45 52.53836 4.49752 41243 ft 479 kts 103°
2026-05-01 13:46 52.52372 4.60448 41242 ft 479 kts 103°
2026-05-01 13:46 52.50901 4.71117 41239 ft 479 kts 103°
2026-05-01 13:47 52.49420 4.81787 41242 ft 479 kts 104°
2026-05-01 13:47 52.47940 4.92373 41241 ft 479 kts 104°
2026-05-01 13:48 52.46457 5.02908 41240 ft 480 kts 104°
2026-05-01 13:48 52.44944 5.13574 41239 ft 481 kts 104°
2026-05-01 13:49 52.43419 5.24252 41242 ft 482 kts 105°
2026-05-01 13:49 52.41891 5.34883 41239 ft 483 kts 104°
2026-05-01 13:50 52.40644 5.43496 41242 ft 483 kts 105°
2026-05-01 13:50 52.39948 5.48286 41236 ft 483 kts 104°
2026-05-01 13:51 52.38384 5.58994 41238 ft 484 kts 104°
2026-05-01 13:51 52.36819 5.69638 41255 ft 484 kts 104°
2026-05-01 13:52 52.35233 5.80354 41257 ft 485 kts 104°
2026-05-01 13:52 52.33638 5.91049 41255 ft 484 kts 104°
2026-05-01 13:53 52.32052 6.01618 41269 ft 484 kts 104°
2026-05-01 13:53 52.29640 6.17559 41272 ft 484 kts 104°
2026-05-01 13:54 52.28013 6.28219 41268 ft 484 kts 104°
2026-05-01 13:54 52.26378 6.38866 41271 ft 484 kts 104°
2026-05-01 13:55 52.25820 6.42481 41277 ft 484 kts 104°
2026-05-01 13:55 52.24181 6.53055 41279 ft 484 kts 104°
2026-05-01 13:56 52.22522 6.63697 41281 ft 484 kts 104°
2026-05-01 13:56 52.20852 6.74334 41279 ft 484 kts 104°
2026-05-01 13:57 52.19459 6.83160 41279 ft 484 kts 104°
2026-05-01 13:57 52.17498 6.95509 41288 ft 484 kts 104°
2026-05-01 13:58 52.15894 7.06031 41280 ft 484 kts 100°
2026-05-01 13:58 52.15277 7.16922 41281 ft 483 kts 90°
2026-05-01 13:59 52.15676 7.27827 41281 ft 483 kts 85°
2026-05-01 13:59 52.16237 7.38636 41285 ft 482 kts 85°
2026-05-01 14:00 52.16412 7.42116 41288 ft 483 kts 84°
2026-05-01 14:00 52.16932 7.53023 41292 ft 482 kts 85°
2026-05-01 14:01 52.17416 7.63918 41294 ft 482 kts 85°
2026-05-01 14:01 52.17881 7.74737 41296 ft 482 kts 85°
2026-05-01 14:02 52.18340 7.85632 41295 ft 482 kts 85°
2026-05-01 14:02 52.18789 7.96524 41300 ft 482 kts 85°
2026-05-01 14:03 52.19225 8.07301 41299 ft 482 kts 86°
2026-05-01 14:03 52.19653 8.18118 41306 ft 481 kts 85°
2026-05-01 14:04 52.20073 8.29002 41312 ft 481 kts 86°
2026-05-01 14:04 52.20414 8.38051 41322 ft 481 kts 85°
2026-05-01 14:05 52.20611 8.43382 41329 ft 481 kts 85°
2026-05-01 14:05 52.21006 8.54197 41332 ft 481 kts 85°
2026-05-01 14:06 52.21393 8.65097 41336 ft 482 kts 86°
2026-05-01 14:06 52.21770 8.76006 41334 ft 482 kts 86°
2026-05-01 14:07 52.22137 8.86905 41346 ft 482 kts 85°
2026-05-01 14:08 52.22920 9.03096 41341 ft 481 kts 83°
2026-05-01 14:08 52.23502 9.12110 41340 ft 481 kts 83°
2026-05-01 14:09 52.24280 9.24715 41339 ft 480 kts 83°
2026-05-01 14:09 52.24905 9.35556 41340 ft 480 kts 84°
2026-05-01 14:10 52.25378 9.44040 41354 ft 480 kts 84°
2026-05-01 14:10 52.25598 9.48029 41351 ft 480 kts 84°
2026-05-01 14:11 52.26190 9.58891 41341 ft 480 kts 84°
2026-05-01 14:11 52.27154 9.76944 41348 ft 480 kts 84°
2026-05-01 14:12 52.27626 9.85977 41347 ft 480 kts 84°
2026-05-01 14:12 52.28185 9.96844 41354 ft 480 kts 84°
2026-05-01 14:13 52.28728 10.07589 41350 ft 479 kts 84°
2026-05-01 14:13 52.29265 10.18417 41348 ft 478 kts 84°
2026-05-01 14:14 52.29791 10.29232 41344 ft 477 kts 84°
2026-05-01 14:14 52.30304 10.39970 41348 ft 477 kts 84°
2026-05-01 14:15 52.30530 10.44761 41355 ft 477 kts 85°
2026-05-01 14:15 52.30973 10.54311 41345 ft 477 kts 85°
2026-05-01 14:16 52.31466 10.65124 41355 ft 477 kts 85°
2026-05-01 14:16 52.31949 10.75929 41347 ft 477 kts 85°
2026-05-01 14:17 52.32420 10.86672 41349 ft 477 kts 84°
2026-05-01 14:17 52.32882 10.97476 41366 ft 476 kts 85°
2026-05-01 14:18 52.33330 11.08165 41357 ft 476 kts 85°
2026-05-01 14:18 52.33772 11.18950 41364 ft 475 kts 85°
2026-05-01 14:19 52.34204 11.29712 41366 ft 474 kts 85°
2026-05-01 14:19 52.34623 11.40407 41364 ft 474 kts 85°
2026-05-01 14:20 52.34945 11.48803 41371 ft 474 kts 85°
2026-05-01 14:21 52.35349 11.59559 41364 ft 474 kts 85°
2026-05-01 14:21 52.35743 11.70311 41364 ft 473 kts 85°
2026-05-01 14:22 52.36312 11.86360 41366 ft 473 kts 85°
2026-05-01 14:22 52.36682 11.97104 41368 ft 473 kts 85°
2026-05-01 14:23 52.37037 12.07738 41370 ft 473 kts 85°
2026-05-01 14:23 52.37385 12.18423 41369 ft 474 kts 85°
2026-05-01 14:24 52.37726 12.29196 41371 ft 474 kts 85°
2026-05-01 14:24 52.38057 12.39969 41370 ft 474 kts 85°
2026-05-01 14:25 52.38196 12.44597 41368 ft 474 kts 85°
2026-05-01 14:25 52.38467 12.53806 41381 ft 474 kts 85°
2026-05-01 14:26 52.38926 12.69969 41365 ft 474 kts 85°
2026-05-01 14:27 52.39220 12.80727 41366 ft 473 kts 86°
2026-05-01 14:27 52.39503 12.91494 41367 ft 473 kts 86°
2026-05-01 14:28 52.39905 13.07436 41375 ft 472 kts 85°
2026-05-01 14:28 52.40164 13.18172 41351 ft 471 kts 86°
2026-05-01 14:29 52.40412 13.28882 41350 ft 471 kts 86°
2026-05-01 14:30 52.40749 13.44101 41345 ft 470 kts 86°
2026-05-01 14:31 52.41058 13.58982 41357 ft 470 kts 86°
2026-05-01 14:31 52.41270 13.69688 41350 ft 470 kts 86°
2026-05-01 14:32 52.41470 13.80319 41356 ft 470 kts 86°
2026-05-01 14:32 52.41662 13.91011 41357 ft 470 kts 86°
2026-05-01 14:33 52.41842 14.01598 41359 ft 470 kts 86°
2026-05-01 14:33 52.42015 14.12311 41365 ft 471 kts 86°
2026-05-01 14:34 52.42178 14.23035 41358 ft 471 kts 86°
2026-05-01 14:34 52.42331 14.33699 41356 ft 471 kts 86°
2026-05-01 14:35 52.42464 14.43603 41360 ft 472 kts 86°
2026-05-01 14:35 52.42517 14.47676 41355 ft 472 kts 86°
2026-05-01 14:36 52.42647 14.58352 41352 ft 472 kts 86°
2026-05-01 14:36 52.42769 14.69098 41345 ft 472 kts 86°
2026-05-01 14:37 52.42881 14.79834 41346 ft 472 kts 86°
2026-05-01 14:37 52.42984 14.90580 41345 ft 472 kts 87°
2026-05-01 14:38 52.43075 15.01132 41347 ft 472 kts 87°
2026-05-01 14:38 52.43158 15.11882 41351 ft 472 kts 87°
2026-05-01 14:39 52.43231 15.22623 41339 ft 472 kts 87°
2026-05-01 14:39 52.43295 15.33375 41336 ft 472 kts 87°
2026-05-01 14:40 52.43344 15.43211 41336 ft 472 kts 87°
2026-05-01 14:40 52.43364 15.47737 41334 ft 472 kts 87°
2026-05-01 14:41 52.43405 15.58491 41333 ft 472 kts 87°
2026-05-01 14:41 52.43436 15.69244 41335 ft 472 kts 87°
2026-05-01 14:42 52.43457 15.79922 41333 ft 472 kts 87°
2026-05-01 14:42 52.43469 15.90663 41328 ft 471 kts 87°
2026-05-01 14:43 52.43471 16.01287 41323 ft 471 kts 87°
2026-05-01 14:43 52.43463 16.12024 41335 ft 471 kts 87°
2026-05-01 14:44 52.43446 16.22765 41322 ft 471 kts 88°
2026-05-01 14:44 52.43402 16.38802 41320 ft 471 kts 88°
2026-05-01 14:45 52.43367 16.47835 41322 ft 471 kts 88°
2026-05-01 14:46 52.43318 16.58568 41316 ft 471 kts 88°
2026-05-01 14:46 52.43225 16.74585 41327 ft 470 kts 88°
2026-05-01 14:47 52.43151 16.85295 41326 ft 470 kts 88°
2026-05-01 14:48 52.43023 17.01224 41315 ft 469 kts 88°
2026-05-01 14:48 52.42874 17.17186 41317 ft 469 kts 88°
2026-05-01 14:49 52.42640 17.38549 41308 ft 468 kts 88°
2026-05-01 14:50 52.42463 17.52759 41309 ft 468 kts 88°
2026-05-01 14:51 52.42245 17.68667 41324 ft 468 kts 88°
2026-05-01 14:52 52.42005 17.84627 41305 ft 467 kts 88°
2026-05-01 14:53 52.41746 18.00378 41307 ft 466 kts 88°
2026-05-01 14:53 52.41560 18.10987 41306 ft 466 kts 88°
2026-05-01 14:54 52.41365 18.21593 41239 ft 466 kts 88°
2026-05-01 14:54 52.41264 18.26921 40702 ft 469 kts 88°
2026-05-01 14:54 52.41160 18.32252 40120 ft 467 kts 88°
2026-05-01 14:54 52.41054 18.37490 39491 ft 466 kts 88°
2026-05-01 14:55 52.40966 18.41804 38956 ft 466 kts 87°
2026-05-01 14:55 52.40876 18.46143 38280 ft 465 kts 87°
2026-05-01 14:55 52.40764 18.51434 37532 ft 464 kts 87°
2026-05-01 14:56 52.40650 18.56698 36811 ft 461 kts 87°
2026-05-01 14:56 52.40534 18.61938 36063 ft 460 kts 87°
2026-05-01 14:56 52.40417 18.67177 35232 ft 461 kts 87°
2026-05-01 14:56 52.40297 18.72421 34382 ft 462 kts 87°
2026-05-01 14:57 52.40177 18.77610 33372 ft 462 kts 88°
2026-05-01 14:57 52.39925 18.88132 31370 ft 462 kts 88°
2026-05-01 14:57 52.39795 18.93383 30543 ft 459 kts 88°
2026-05-01 14:58 52.39663 18.98572 29729 ft 453 kts 88°
2026-05-01 14:58 52.39532 19.03593 28955 ft 448 kts 88°
2026-05-01 14:58 52.39399 19.08657 28219 ft 443 kts 88°
2026-05-01 14:58 52.39266 19.13674 27496 ft 438 kts 88°
2026-05-01 14:59 52.39135 19.18557 26773 ft 434 kts 88°
2026-05-01 14:59 52.39001 19.23471 26085 ft 430 kts 88°
2026-05-01 14:59 52.38866 19.28343 25361 ft 427 kts 88°
2026-05-01 14:59 52.38731 19.33179 24661 ft 424 kts 88°
2026-05-01 15:00 52.38623 19.37020 24103 ft 421 kts 88°
2026-05-01 15:00 52.38502 19.41210 23408 ft 419 kts 88°
2026-05-01 15:00 52.38364 19.45962 22642 ft 416 kts 88°
2026-05-01 15:01 52.38226 19.50604 21955 ft 411 kts 88°
2026-05-01 15:01 52.38087 19.55256 21256 ft 407 kts 87°
2026-05-01 15:01 52.37948 19.59862 20580 ft 404 kts 87°
2026-05-01 15:01 52.37809 19.64433 19917 ft 400 kts 87°
2026-05-01 15:02 52.37669 19.68925 19615 ft 388 kts 87°
2026-05-01 15:02 52.37575 19.71812 19490 ft 379 kts 87°
2026-05-01 15:02 52.37542 19.77389 19256 ft 352 kts 76°
2026-05-01 15:02 52.38196 19.81108 19001 ft 333 kts 63°
2026-05-01 15:03 52.39075 19.84593 18765 ft 329 kts 63°
2026-05-01 15:03 52.39935 19.87990 18506 ft 326 kts 63°
2026-05-01 15:03 52.40795 19.91409 18222 ft 324 kts 63°
2026-05-01 15:03 52.41644 19.94814 17966 ft 322 kts 63°
2026-05-01 15:04 52.42486 19.98213 17700 ft 321 kts 63°
2026-05-01 15:04 52.43301 20.01523 17459 ft 320 kts 63°
2026-05-01 15:04 52.44129 20.04899 17217 ft 319 kts 64°
2026-05-01 15:04 52.44953 20.08272 16963 ft 319 kts 64°
2026-05-01 15:05 52.45598 20.10915 16769 ft 318 kts 64°
2026-05-01 15:05 52.46253 20.13606 16578 ft 318 kts 64°
2026-05-01 15:05 52.47074 20.16982 16321 ft 319 kts 64°
2026-05-01 15:06 52.47894 20.20358 16080 ft 319 kts 64°
2026-05-01 15:06 52.48713 20.23739 15833 ft 319 kts 64°
2026-05-01 15:06 52.49531 20.27118 15584 ft 319 kts 64°
2026-05-01 15:06 52.50317 20.30511 15323 ft 316 kts 69°
2026-05-01 15:07 52.50524 20.34092 15113 ft 327 kts 88°
2026-05-01 15:07 52.50044 20.37787 14847 ft 339 kts 105°
2026-05-01 15:07 52.48961 20.41268 14586 ft 345 kts 113°
2026-05-01 15:07 52.47738 20.44685 14302 ft 348 kts 114°
2026-05-01 15:08 52.46496 20.48110 14029 ft 350 kts 114°
2026-05-01 15:08 52.45268 20.51515 13708 ft 344 kts 114°
2026-05-01 15:08 52.44070 20.54877 13430 ft 339 kts 114°
2026-05-01 15:08 52.42897 20.58201 13151 ft 335 kts 114°
2026-05-01 15:09 52.41739 20.61506 12902 ft 334 kts 114°
2026-05-01 15:09 52.40599 20.64759 12660 ft 333 kts 114°
2026-05-01 15:09 52.39444 20.68049 12395 ft 333 kts 114°
2026-05-01 15:09 52.38291 20.71327 12111 ft 333 kts 114°
2026-05-01 15:10 52.37385 20.73899 11878 ft 333 kts 114°
2026-05-01 15:10 52.36483 20.76454 11661 ft 334 kts 114°
2026-05-01 15:10 52.35321 20.79745 11355 ft 334 kts 114°
2026-05-01 15:11 52.34164 20.83012 11058 ft 329 kts 114°
2026-05-01 15:11 52.31913 20.89360 10444 ft 316 kts 114°
2026-05-01 15:11 52.30823 20.92436 10201 ft 309 kts 115°
2026-05-01 15:12 52.29764 20.95413 10025 ft 299 kts 115°
2026-05-01 15:12 52.27743 21.01079 9509 ft 287 kts 116°
2026-05-01 15:12 52.26414 21.03527 9093 ft 293 kts 142°
2026-05-01 15:13 52.21108 21.08079 8279 ft 283 kts 148°
2026-05-01 15:14 52.17677 21.11024 7792 ft 279 kts 148°
2026-05-01 15:14 52.15969 21.12492 7535 ft 277 kts 149°
2026-05-01 15:14 52.12589 21.15428 7041 ft 273 kts 148°
2026-05-01 15:15 52.09219 21.18386 6281 ft 279 kts 149°
2026-05-01 15:15 52.05830 21.21350 5714 ft 273 kts 150°
2026-05-01 15:16 52.02527 21.24231 5206 ft 266 kts 150°
2026-05-01 15:16 51.99315 21.26929 4841 ft 251 kts 161°
2026-05-01 15:17 51.96247 21.25438 4480 ft 239 kts 233°
2026-05-01 15:18 51.95652 21.17992 3973 ft 225 kts 299°
2026-05-01 15:18 51.96341 21.15756 3831 ft 218 kts 299°
2026-05-01 15:19 51.99454 21.11651 3417 ft 182 kts 332°
2026-05-01 15:19 52.01598 21.09757 3194 ft 170 kts 334°
2026-05-01 15:19 52.02635 21.08857 3102 ft 167 kts 333°
2026-05-01 15:20 52.04702 21.07058 2792 ft 163 kts 333°
2026-05-01 15:20 52.05678 21.06207 2565 ft 157 kts 333°
2026-05-01 15:20 52.06641 21.05372 2348 ft 155 kts 333°
2026-05-01 15:21 52.07576 21.04557 2142 ft 151 kts 334°
2026-05-01 15:21 52.08490 21.03757 1959 ft 148 kts 335°
2026-05-01 15:21 52.09414 21.02960 1747 ft 150 kts 335°
2026-05-01 15:21 52.10283 21.02201 1547 ft 134 kts 335°
2026-05-01 15:22 52.11868 21.00816 1188 ft 124 kts 334°
2026-05-01 15:22 52.12626 21.00145 1057 ft 126 kts 334°
2026-05-01 15:22 52.13397 20.99472 879 ft 126 kts 333°
2026-05-01 15:23 52.14150 20.98823 678 ft 124 kts 334°
2026-05-01 15:23 52.14922 20.98147 516 ft 128 kts 334°
2026-05-01 15:23 52.15726 20.97445 375 ft 133 kts 334°
2026-05-01 15:23 52.16478 20.96796 352 ft 106 kts 332°
2026-05-01 15:24 52.16966 20.96369 353 ft 62 kts 332°
2026-05-01 15:24 52.17273 20.96244 342 ft 30 kts
2026-05-01 15:24 52.17399 20.96306 352 ft 15 kts 53°
2026-05-01 15:24 52.17452 20.96453 348 ft 15 kts 61°
2026-05-01 15:25 52.17511 20.96591 352 ft 15 kts 54°
2026-05-01 15:25 52.17504 20.96691 349 ft 9 kts 132°
2026-05-01 15:25 52.17469 20.96747 352 ft 2 kts 136°
2026-05-01 15:25 52.17465 20.96753 354 ft 0 kts 136°